EW1708 Weather Reports


Display with metric or nautical units.
time (UTC)temp
F
wind
direction
speed
MPH
gust
MPH
rain 1hr
in
rain 24hr
in
rain mn
in
humidity
%
barometer
mb
20260901100330 52 232 2.0 5.0 0.00 0.20 0.00 90 1015.5
20260901095339 52 246 2.0 4.0 0.00 0.20 0.00 89 1015.3
20260901094331 52 252 2.0 7.0 0.00 0.20 0.00 88 1015.3
20260901093332 53 257 5.0 9.0 0.00 0.20 0.00 88 1015.3
20260901092324 53 240 5.0 9.0 0.00 0.20 0.00 88 1015.2
20260901091344 53 234 5.0 9.0 0.00 0.20 0.00 88 1015.1
20260901090339 53 226 5.0 10.0 0.00 0.20 0.00 88 1015.0
20260901085306 54 234 6.0 10.0 0.00 0.20 0.00 88 1014.9
20260901083156 55 252 5.0 8.0 0.00 0.20 0.00 87 1014.5
20260901082126 54 267 4.0 6.0 0.00 0.20 0.00 89 1014.4
20260901081120 53 257 3.0 6.0 0.00 0.20 0.00 89 1014.5
20260901080142 54 259 3.0 5.0 0.00 0.20 0.00 88 1014.3
20260901074012 55 269 2.0 5.0 0.00 0.20 0.00 87 1014.2
20260901073031 55 262 2.0 4.0 0.00 0.20 0.00 87 1014.2
20260901072016 55 261 3.0 5.0 0.00 0.20 0.00 87 1014.3
20260901065903 55 254 3.0 6.0 0.00 0.20 0.00 88 1014.3
20260901063706 56 265 3.0 6.0 0.00 0.20 0.00 87 1014.1
20260901062632 56 259 5.0 8.0 0.00 0.20 0.00 86 1014.2
20260901061618 56 242 5.0 8.0 0.00 0.20 0.00 87 1014.3
20260901060604 57 258 4.0 11.0 0.00 0.20 0.00 86 1014.2
20260901055608 57 236 6.0 11.0 0.00 0.20 0.20 86 1014.3
20260901054610 57 241 7.0 12.0 0.00 0.20 0.20 86 1014.4
20260901052535 58 230 6.0 10.0 0.00 0.20 0.20 86 1014.3
20260901050357 57 241 4.0 7.0 0.00 0.20 0.20 87 1014.1
20260901045348 57 247 4.0 7.0 0.00 0.20 0.20 87 1013.9
20260901044344 58 254 4.0 7.0 0.00 0.20 0.20 87 1014.0
20260901043401 58 233 4.0 9.0 0.00 0.20 0.20 86 1013.9
20260901042356 59 242 5.0 9.0 0.00 0.20 0.20 85 1013.8
20260901041353 59 230 5.0 9.0 0.00 0.20 0.20 84 1013.8
20260901035240 60 240 4.0 8.0 0.00 0.20 0.20 84 1013.4
20260901034212 60 256 5.0 10.0 0.00 0.20 0.20 83 1013.3
20260901033200 61 259 6.0 10.0 0.00 0.20 0.20 83 1013.1
20260901032158 60 261 6.0 9.0 0.00 0.20 0.20 83 1013.0
20260901031202 60 238 4.0 7.0 0.00 0.20 0.20 84 1012.7
20260901030220 60 249 4.0 6.0 0.00 0.20 0.20 85 1012.6
20260901025237 60 254 3.0 6.0 0.00 0.20 0.20 83 1012.4
20260901024219 61 258 4.0 6.0 0.00 0.20 0.20 83 1012.3
20260901023231 62 265 3.0 7.0 0.00 0.20 0.20 81 1012.1
20260901021118 63 240 3.0 6.0 0.00 0.20 0.20 80 1011.8
20260901020116 63 257 4.0 6.0 0.00 0.20 0.20 78 1011.7
20260901015046 64 281 4.0 7.0 0.00 0.20 0.20 77 1011.5
20260901014109 66 289 6.0 13.0 0.00 0.20 0.20 74 1011.4
20260901013049 67 294 9.0 18.0 0.00 0.20 0.20 71 1011.3
20260901012102 68 281 13.0 21.0 0.00 0.20 0.20 68 1011.1
20260901004838 70 288 16.0 25.0 0.00 0.20 0.20 65 1010.8
20260901003807 70 291 14.0 25.0 0.00 0.20 0.20 66 1010.6
20260901001657 70 263 16.0 24.0 0.00 0.20 0.20 65 1010.4
20260901000643 70 302 15.0 24.0 0.00 0.20 0.20 65 1010.4
20260831234540 71 307 23.0 34.0 0.00 0.20 0.20 61 1010.0
20260831233555 71 284 21.0 34.0 0.00 0.20 0.20 62 1009.8
20260831232620 71 286 21.0 33.0 0.00 0.20 0.20 63 1009.8
20260831231624 71 279 23.0 38.0 0.00 0.21 0.20 63 1009.8
20260831230612 72 281 25.0 39.0 0.00 0.22 0.20 62 1009.8
20260831222211 71 273 24.0 41.0 0.00 0.23 0.20 64 1009.0
20260831221211 70 282 28.0 41.0 0.00 0.23 0.20 68 1009.0
20260831220153 69 270 26.0 38.0 0.00 0.23 0.20 68 1008.7
20260831214007 67 268 23.0 34.0 0.00 0.23 0.20 75 1008.7
20260831212946 65 279 23.0 38.0 0.00 0.23 0.20 77 1008.6
20260831211942 66 271 27.0 38.0 0.00 0.23 0.20 77 1008.5
20260831211001 65 267 25.0 37.0 0.00 0.23 0.20 78 1008.4
20260831205941 64 265 24.0 37.0 0.00 0.23 0.20 79 1008.3
20260831204927 64 247 24.0 36.0 0.00 0.24 0.20 80 1008.2
20260831203858 65 254 25.0 36.0 0.00 0.24 0.20 79 1007.9
20260831200636 65 259 29.0 43.0 0.00 0.24 0.20 79 1007.0
20260831195620 65 271 26.0 40.0 0.00 0.30 0.20 79 1006.7
20260831194637 65 267 24.0 40.0 0.00 0.45 0.20 79 1006.6
20260831192531 64 265 24.0 35.0 0.00 1.52 0.20 81 1006.1
20260831191520 64 294 25.0 35.0 0.00 1.54 0.20 81 1006.0
20260831190453 64 258 23.0 41.0 0.00 1.54 0.20 81 1005.7
20260831185503 64 235 24.0 41.0 0.00 1.54 0.20 80 1005.5
20260831183337 63 249 19.0 35.0 0.00 1.55 0.20 83 1005.1
20260831182400 63 250 21.0 32.0 0.00 1.55 0.20 83 1004.9
20260831181337 63 254 20.0 36.0 0.00 1.55 0.20 84 1004.9
20260831175228 62 242 21.0 39.0 0.00 1.55 0.20 85 1004.4
20260831174159 62 249 21.0 39.0 0.00 1.55 0.20 85 1004.2
20260831173150 62 226 22.0 38.0 0.00 1.55 0.20 85 1003.9
20260831172142 62 232 23.0 38.0 0.00 1.55 0.20 86 1003.7
20260831171114 61 244 25.0 38.0 0.00 1.55 0.20 85 1003.5
20260831170044 62 235 25.0 43.0 0.00 1.54 0.19 85 1003.3
20260831165033 62 244 27.0 43.0 0.00 1.54 0.19 85 1003.2
20260831164048 61 233 25.0 39.0 0.00 1.54 0.19 86 1003.0
20260831163014 61 232 27.0 37.0 0.00 1.54 0.19 85 1003.1
20260831160854 60 226 24.0 38.0 0.00 1.53 0.18 85 1002.7
20260831155824 59 240 20.0 32.0 0.00 1.53 0.18 88 1002.7
20260831154810 57 215 19.0 27.0 0.03 1.53 0.18 89 1002.7
20260831153830 56 217 16.0 25.0 0.03 1.53 0.18 88 1002.6
20260831151711 55 211 18.0 31.0 0.06 1.51 0.17 89 1002.9
20260831150714 54 201 16.0 31.0 0.09 1.51 0.16 89 1002.9
20260831145651 54 179 12.0 22.0 0.11 1.49 0.14 89 1003.1
20260831144657 54 202 10.0 20.0 0.06 1.46 0.11 89 1003.4
20260831143632 54 252 10.0 19.0 0.11 1.45 0.11 88 1003.8
20260831142656 54 207 8.0 16.0 0.12 1.41 0.07 88 1004.3
20260831141639 54 186 7.0 13.0 0.18 1.40 0.05 88 1004.5
20260831133226 57 228 14.0 22.0 0.00 1.34 0.00 76 1004.8
20260831132248 57 234 14.0 20.0 0.00 1.34 0.00 75 1005.1
20260831131309 57 214 14.0 20.0 0.00 1.34 0.00 75 1005.2
20260831125145 56 211 16.0 21.0 0.00 1.34 0.00 75 1005.3
20260831124115 56 217 14.0 21.0 0.00 1.34 0.00 76 1005.4
20260831123044 55 232 10.0 18.0 0.00 1.34 0.00 78 1005.5
20260831122054 54 201 9.0 17.0 0.00 1.34 0.00 79 1005.4
20260831115919 54 196 5.0 13.0 0.00 1.34 0.00 80 1005.2
20260831114856 54 206 5.0 11.0 0.00 1.34 0.00 80 1005.3
20260831113840 54 204 4.0 9.0 0.00 1.34 0.00 81 1005.2
20260831112842 55 209 5.0 11.0 0.00 1.34 0.00 80 1005.6
20260831110637 55 218 8.0 13.0 0.00 1.34 0.00 79 1005.8
20260831105647 55 221 10.0 15.0 0.00 1.34 0.00 78 1005.9
20260831104659 56 224 11.0 16.0 0.00 1.34 0.00 77 1006.2
20260831103652 56 230 11.0 19.0 0.00 1.34 0.00 77 1006.2
20260831102648 56 240 12.0 20.0 0.00 1.34 0.00 78 1006.3
20260831101617 55 241 12.0 20.0 0.00 1.34 0.00 77 1006.4